Regional Weather Roundup
Issued by NWS Albany, NY

Home | Current Version | Previous Version | Text Only | Print | Product List | Glossary On
Versions: 1 2 3 4 5 6 7 8 9 10 11 12 13 14 15 16 17 18 19 20 21 22 23 24 25 26 27 28 29 30 31 32 33 34 35 36 37 38 39 40 41 42 43 44 45 46 47 48 49 50
231
ASUS41 KALY 220510
RWRALY

NEW YORK STATE HOURLY WEATHER ROUNDUP
NATIONAL WEATHER SERVICE ALBANY NY
100 AM EDT TUE AUG 22 2017

NOTE: "FAIR" INDICATES FEW OR NO CLOUDS BELOW 12,000 FEET WITH NO
SIGNIFICANT WEATHER AND/OR NO OBSTRUCTIONS TO VISIBILITY.

NYZ032-033-038>043-046>054-057>066-NYZ062>081-082-084-220600-
EAST


CITY           SKY/WX    TMP DP  RH WIND       PRES   REMARKS
ALBANY         PTCLDY    71  67  87 S3        30.04F
GLENS FALLS    CLEAR     63  62  97 CALM      30.04R FOG
POUGHKEEPSIE   CLOUDY    69  67  93 E3        30.06F
MONTGOMERY     CLOUDY    72  69  90 CALM      30.08S
WHITE PLAINS   PTCLDY    75  69  81 CALM      30.09F
ISLIP          CLEAR     75  72  90 SW9       30.09F
NEW YORK CITY  PTCLDY    78  72  81 SW10      30.08F
CENTRAL PARK   CLEAR     76  70  82 SW3       30.11F
$$

NYZ005>009-017-018-044>046-055-056-220600-
CENTRAL


CITY           SKY/WX    TMP DP  RH WIND       PRES   REMARKS
FULTON         CLEAR     66  64  93 CALM      30.02F FOG
SYRACUSE       PTCLDY    69  65  86 E5        30.02F
ROME           CLEAR     69  65  86 E5        30.05S
ELMIRA         FOG       65 N/A N/A CALM      30.07F VSB 1/4
BINGHAMTON     CLEAR     66  65  96 S5        30.10F
MONTICELLO     CLEAR     67  66  97 CALM      30.14S FOG
$$

NYZ026>034-041>043-087-220600-
NORTH


CITY           SKY/WX    TMP DP  RH WIND       PRES   REMARKS
WATERTOWN      CLEAR     67  65  93 CALM      30.00F
FORT DRUM      NOT AVBL
OGDENSBURG     FAIR      68  65  91 S3        29.99F
MASSENA        CLEAR     70  66  87 SW6       29.98F
SARANAC LAKE   CLEAR     58  58 100 CALM      30.06F
PLATTSBURGH    CLEAR     64  62  93 CALM      29.99F
$$

NYZ001>004-010>016-019>021-085-220600-
WEST


CITY           SKY/WX    TMP DP  RH WIND       PRES   REMARKS
NIAGARA FALLS  MOCLDY    73  67  81 S3        29.98F
BUFFALO        PTCLDY    72  66  81 S7        30.00F
DUNKIRK        CLEAR     76  68  76 S10G18    30.01F
JAMESTOWN      CLOUDY    69  67  93 S7        30.09F
WELLSVILLE     CLOUDY    71  64  78 SW8       30.13F
ROCHESTER      CLEAR     70  67  90 SW5       30.02F
PENN YAN       CLEAR     70  66  87 SW6       30.06F
$$

             KEY
       WCI = WIND CHILL INDEX
       VSB = VISIBILITY
       HX  = HEAT INDEX
$$




USA.gov is the U.S. government's official web portal to all federal, state and local government web resources and services.